When you browse on this site, cookies collect data to enhance your experience and personalize the content and advertising you see.
Visit our Privacy Policy to learn more. By continuing to use the site, you agree to this use of cookies and data.
  • In Slovakia
  • List of Countries
  • For 7 days
  • Water Temperature
  • Satellite Maps
  • Weather Map
  • Weather Widgets
  • user-avatar
    Login

    Hourly Weather Zidyan-Kazmalyar

    Today, 27 June, Thursday

    Time Temperature Precipitation Wind Pressure Humidity
    00:00 +25°C° 0.2 mm 2 mps 742 mmHg 71%
    01:00 +25°C° 0.1 mm 2 mps 742 mmHg 72%
    02:00 +24°C° 0.1 mm 1 mps 742 mmHg 73%
    03:00 +24°C° 0.1 mm 1 mps 742 mmHg 74%
    04:00 +25°C° 0 mm 1 mps 742 mmHg 69%
    05:00 +24°C° 0 mm 0 mps 742 mmHg 65%
    06:00 +25°C° 0 mm 0 mps 742 mmHg 61%
    07:00 +28°C° 0.1 mm 1 mps 742 mmHg 58%
    08:00 +29°C° 0.1 mm 1 mps 742 mmHg 54%
    09:00 +30°C° 0.1 mm 2 mps 742 mmHg 50%
    10:00 +30°C° 0.2 mm 2 mps 741 mmHg 50%
    11:00 +31°C° 0.2 mm 3 mps 741 mmHg 51%
    12:00 +31°C° 0.2 mm 3 mps 741 mmHg 51%
    13:00 +31°C° 0.1 mm 3 mps 740 mmHg 50%
    14:00 +31°C° 0.1 mm 3 mps 740 mmHg 49%
    15:00 +32°C° 0.1 mm 4 mps 740 mmHg 47%
    16:00 +30°C° 0 mm 3 mps 739 mmHg 50%
    17:00 +29°C° 0 mm 3 mps 739 mmHg 54%
    18:00 +28°C° 0 mm 2 mps 739 mmHg 57%
    19:00 +27°C° 0 mm 2 mps 739 mmHg 61%
    20:00 +26°C° 0 mm 2 mps 739 mmHg 66%
    21:00 +24°C° 0 mm 1 mps 739 mmHg 71%
    22:00 +24°C° 0 mm 2 mps 738 mmHg 69%
    23:00 +24°C° 0 mm 2 mps 738 mmHg 68%

    Tomorrow, 28 June, Friday

    Time Temperature Precipitation Wind Pressure Humidity
    00:00 +24°C° 0 mm 2 mps 738 mmHg 67%
    01:00 +23°C° 0 mm 2 mps 738 mmHg 67%
    02:00 +23°C° 0 mm 2 mps 737 mmHg 66%
    03:00 +23°C° 0 mm 2 mps 737 mmHg 66%
    04:00 +24°C° 0 mm 2 mps 737 mmHg 64%
    05:00 +25°C° 0 mm 2 mps 737 mmHg 61%
    06:00 +26°C° 0 mm 2 mps 736 mmHg 59%
    07:00 +28°C° 0 mm 3 mps 736 mmHg 53%
    08:00 +29°C° 0 mm 3 mps 736 mmHg 47%
    09:00 +31°C° 0 mm 3 mps 736 mmHg 41%
    10:00 +33°C° 0 mm 4 mps 735 mmHg 40%
    11:00 +33°C° 0 mm 4 mps 735 mmHg 39%
    12:00 +34°C° 0 mm 4 mps 734 mmHg 37%
    13:00 +34°C° 0 mm 4 mps 734 mmHg 38%
    14:00 +33°C° 0 mm 4 mps 734 mmHg 39%
    15:00 +33°C° 0 mm 4 mps 733 mmHg 40%
    16:00 +31°C° 0 mm 3 mps 733 mmHg 43%
    17:00 +31°C° 0 mm 3 mps 733 mmHg 46%
    18:00 +30°C° 0 mm 2 mps 732 mmHg 49%
    19:00 +28°C° 0 mm 2 mps 733 mmHg 54%
    20:00 +27°C° 0 mm 2 mps 733 mmHg 59%
    21:00 +25°C° 0 mm 2 mps 733 mmHg 64%
    22:00 +25°C° 0.1 mm 1 mps 733 mmHg 63%
    23:00 +25°C° 0.1 mm 1 mps 733 mmHg 62%

    Day after tomorrow, 29 June, Saturday

    Time Temperature Precipitation Wind Pressure Humidity
    00:00 +25°C° 0.1 mm 1 mps 733 mmHg 61%
    01:00 +25°C° 0.2 mm 3 mps 733 mmHg 67%
    02:00 +23°C° 0.2 mm 4 mps 733 mmHg 73%
    03:00 +23°C° 0.2 mm 6 mps 733 mmHg 78%
    04:00 +23°C° 0 mm 5 mps 733 mmHg 78%
    05:00 +25°C° 0 mm 5 mps 733 mmHg 78%
    06:00 +25°C° 0 mm 4 mps 733 mmHg 78%
    07:00 +26°C° 0 mm 5 mps 733 mmHg 74%
    08:00 +27°C° 0 mm 5 mps 733 mmHg 69%
    09:00 +28°C° 0 mm 6 mps 733 mmHg 65%
    10:00 +28°C° 0.1 mm 5 mps 733 mmHg 65%
    11:00 +28°C° 0.1 mm 5 mps 733 mmHg 66%
    12:00 +28°C° 0.1 mm 5 mps 733 mmHg 66%
    13:00 +27°C° 0.3 mm 4 mps 733 mmHg 71%
    14:00 +27°C° 0.3 mm 3 mps 733 mmHg 75%
    15:00 +26°C° 0.3 mm 2 mps 733 mmHg 80%
    16:00 +25°C° 0.7 mm 3 mps 733 mmHg 81%
    17:00 +25°C° 0.7 mm 3 mps 733 mmHg 82%
    18:00 +25°C° 0.7 mm 4 mps 733 mmHg 83%
    19:00 +23°C° 0.5 mm 4 mps 733 mmHg 85%
    20:00 +23°C° 0.5 mm 5 mps 734 mmHg 88%
    21:00 +22°C° 0.5 mm 5 mps 734 mmHg 90%
    22:00 +22°C° 0.7 mm 5 mps 734 mmHg 90%
    23:00 +21°C° 0.7 mm 6 mps 734 mmHg 90%

    30 June, Sunday

    Time Temperature Precipitation Wind Pressure Humidity
    00:00 +21°C° 0.7 mm 6 mps 734 mmHg 90%
    01:00 +20°C° 2.8 mm 7 mps 735 mmHg 90%
    02:00 +20°C° 2.8 mm 8 mps 735 mmHg 90%
    03:00 +18°C° 2.8 mm 8 mps 735 mmHg 90%
    04:00 +18°C° 0.5 mm 7 mps 735 mmHg 89%
    05:00 +18°C° 0.5 mm 7 mps 736 mmHg 89%
    06:00 +19°C° 0.5 mm 6 mps 736 mmHg 88%
    07:00 +19°C° 0.3 mm 6 mps 736 mmHg 84%
    08:00 +20°C° 0.3 mm 5 mps 737 mmHg 81%
    09:00 +20°C° 0.3 mm 5 mps 737 mmHg 77%
    10:00 +21°C° 0 mm 5 mps 737 mmHg 71%
    11:00 +23°C° 0 mm 5 mps 737 mmHg 64%
    12:00 +25°C° 0 mm 5 mps 737 mmHg 57%
    13:00 +25°C° 0 mm 5 mps 737 mmHg 58%
    14:00 +25°C° 0 mm 5 mps 737 mmHg 58%
    15:00 +23°C° 0 mm 5 mps 737 mmHg 59%
    16:00 +23°C° 0 mm 4 mps 737 mmHg 60%
    17:00 +22°C° 0 mm 3 mps 737 mmHg 62%
    18:00 +23°C° 0 mm 2 mps 737 mmHg 63%
    19:00 +21°C° 0.2 mm 2 mps 737 mmHg 67%
    20:00 +20°C° 0.2 mm 2 mps 737 mmHg 70%
    21:00 +20°C° 0.2 mm 2 mps 738 mmHg 74%
    22:00 +19°C° 1.3 mm 3 mps 738 mmHg 80%
    23:00 +18°C° 1.3 mm 4 mps 738 mmHg 85%

    1 July, Monday

    Time Temperature Precipitation Wind Pressure Humidity
    00:00 +17°C° 1.3 mm 6 mps 738 mmHg 91%
    01:00 +16°C° 2.7 mm 6 mps 738 mmHg 91%
    02:00 +15°C° 2.7 mm 6 mps 738 mmHg 92%
    03:00 +14°C° 2.7 mm 7 mps 738 mmHg 93%
    04:00 +14°C° 2.7 mm 7 mps 739 mmHg 91%
    05:00 +15°C° 2.7 mm 7 mps 739 mmHg 90%
    06:00 +15°C° 2.7 mm 6 mps 739 mmHg 88%
    07:00 +15°C° 1.6 mm 6 mps 740 mmHg 88%
    08:00 +15°C° 1.6 mm 5 mps 740 mmHg 88%
    09:00 +15°C° 1.6 mm 4 mps 740 mmHg 87%
    10:00 +15°C° 1.8 mm 4 mps 740 mmHg 86%
    11:00 +16°C° 1.8 mm 3 mps 740 mmHg 84%
    12:00 +17°C° 1.8 mm 3 mps 740 mmHg 82%
    13:00 +17°C° 0.5 mm 3 mps 740 mmHg 77%
    14:00 +18°C° 0.5 mm 2 mps 740 mmHg 71%
    15:00 +20°C° 0.5 mm 1 mps 740 mmHg 66%
    16:00 +20°C° 0 mm 1 mps 740 mmHg 65%
    17:00 +19°C° 0 mm 2 mps 740 mmHg 64%
    18:00 +19°C° 0 mm 2 mps 740 mmHg 63%
    19:00 +19°C° 0 mm 2 mps 741 mmHg 65%
    20:00 +18°C° 0 mm 2 mps 741 mmHg 67%
    21:00 +17°C° 0 mm 2 mps 741 mmHg 69%
    22:00 +17°C° 0 mm 3 mps 741 mmHg 68%
    23:00 +18°C° 0 mm 4 mps 741 mmHg 67%

    2 July, Tuesday

    Time Temperature Precipitation Wind Pressure Humidity
    00:00 +18°C° 0 mm 4 mps 741 mmHg 66%
    01:00 +17°C° 0 mm 4 mps 741 mmHg 66%
    02:00 +17°C° 0 mm 3 mps 742 mmHg 65%
    03:00 +17°C° 0 mm 3 mps 742 mmHg 64%
    04:00 +17°C° 0 mm 3 mps 742 mmHg 64%
    05:00 +18°C° 0 mm 2 mps 742 mmHg 63%
    06:00 +19°C° 0 mm 2 mps 742 mmHg 62%
    07:00 +20°C° 0 mm 3 mps 742 mmHg 56%
    08:00 +22°C° 0 mm 3 mps 742 mmHg 50%
    09:00 +25°C° 0 mm 3 mps 742 mmHg 45%
    10:00 +25°C° 0 mm 4 mps 742 mmHg 44%
    11:00 +26°C° 0 mm 5 mps 742 mmHg 43%
    12:00 +27°C° 0 mm 5 mps 742 mmHg 43%
    13:00 +27°C° 0 mm 5 mps 742 mmHg 44%
    14:00 +27°C° 0 mm 6 mps 742 mmHg 46%
    15:00 +27°C° 0 mm 6 mps 741 mmHg 48%
    16:00 +26°C° 0 mm 6 mps 741 mmHg 51%
    17:00 +26°C° 0 mm 5 mps 741 mmHg 55%
    18:00 +25°C° 0 mm 5 mps 741 mmHg 59%
    19:00 +23°C° 0 mm 4 mps 741 mmHg 63%
    20:00 +21°C° 0 mm 4 mps 741 mmHg 67%
    21:00 +20°C° 0 mm 3 mps 742 mmHg 72%
    22:00 +20°C° 0 mm 3 mps 741 mmHg 69%
    23:00 +20°C° 0 mm 2 mps 741 mmHg 66%
    Show more